Wetbulb
36.76 33.22 30.36 33.86 34.61 34.57 33.51 31.62 30.87 34.13 37.87 36.60 35.34 36.03 38.32 41.69 41.04 40.62 41.93 43.25 44.48 46.93 48.88 50.01 51.55 52.49 52.75 54.29 55.16 58.11 61.73 63.10 63.88 64.32 65.81 65.76 65.86 66.53 67.11 67.72 68.30 67.72 67.42 67.00
33.32 29.44 35.46 37.91 36.92 35.07 33.21 30.32 30.46 34.87 38.43 36.14 35.36 35.45 38.69 39.88 40.55 40.97 41.30 42.25 42.78 44.47 47.03 48.49 49.17 50.56 50.38 51.60 52.33 54.64 57.62 61.19 61.18 64.84 66.85 67.25 67.35 67.83 68.86 69.27 69.08 68.59 68.06 68.03
30.40 34.46 39.11 37.41 35.74 35.05 32.52 31.33 31.68 32.58 36.30 35.71 34.12 30.71 33.68 38.43 40.04 41.31 42.31 42.30 42.65 42.75 43.20 46.38 47.47 48.19 48.90 49.47 50.36 51.86 54.40 56.98 59.49 62.53 63.70 64.01 64.52 63.97 65.45 66.22 68.14 68.68 68.91 68.77
32.33 36.40 36.91 34.17 34.85 35.96 29.45 37.33 36.51 34.48 30.56 24.25 33.59 22.35 29.52 34.13 35.73 38.45 39.42 39.35 40.72 43.20 45.61 45.93 47.43 48.22 49.13 50.45 49.53 49.41 51.73 54.60 57.76 59.75 62.28 63.86 65.07 65.06 66.71 67.45 67.31 67.62 68.68 68.90
32.95 33.65 33.04 32.55 34.61 37.61 32.56 37.90 34.56 33.88 29.14 26.06 27.70 22.96 27.33 33.22 32.60 34.78 38.26 40.20 43.12 44.55 45.26 45.71 46.28 47.76 49.04 50.33 49.45 49.19 49.92 52.15 56.31 58.62 61.90 63.71 63.99 65.36 66.28 62.46 65.33 65.38 65.51 66.58
34.62 37.44 36.12 35.81 38.86 38.04 37.73 33.60 30.88 28.09 26.00 19.83 25.83 25.20 23.75 29.28 33.18 36.07 39.90 42.11 43.34 44.23 44.84 45.52 46.66 47.60 47.43 48.82 49.51 49.87 49.47 49.81 54.79 58.23 60.93 63.71 64.87 65.24 61.00 60.95 61.75 62.79 63.29 64.93
33.56 32.89 37.71 40.18 34.25 35.13 32.63 26.30 19.62 18.58 18.27 19.15 27.76 25.29 27.47 34.23 37.42 38.10 40.46 42.13 43.31 43.21 43.13 43.50 43.68 45.32 47.02 47.66 48.64 49.56 50.41 49.61 51.35 56.81 59.34 62.02 64.95 65.78 63.61 63.95 62.78 61.08 62.13 64.22
27.32 25.98 35.53 40.35 34.62 31.11 29.18 27.64 20.34 15.71 17.55 18.25 28.35 22.42 27.01 36.05 39.06 41.05 42.55 42.63 43.39 43.57 42.92 42.08 43.23 44.27 46.19 47.76 48.46 49.13 49.45 48.77 51.35 53.62 58.55 61.40 63.81 65.32 64.56 63.83 61.88 61.67 62.40 64.14
29.50 30.14 38.46 39.39 38.28 36.17 28.99 26.04 28.83 23.34 21.81 17.61 22.66 27.62 34.26 37.84 37.73 39.52 41.01 41.74 41.46 42.49 42.52 42.52 43.81 43.99 45.57 46.98 48.09 49.40 49.01 49.84 54.77 53.02 57.57 60.31 62.42 63.32 62.23 60.57 61.69 61.84 64.09 65.16
33.97 28.01 37.07 38.86 38.20 35.94 32.40 33.79 23.48 21.92 17.54 17.69 21.48 23.75 26.06 32.32 35.06 36.73 38.69 39.14 41.29 42.61 41.59 43.17 44.31 45.92 47.79 47.95 48.45 49.40 49.13 51.87 54.33 54.46 55.31 59.82 60.82 61.43 61.16 60.54 61.89 63.54 64.79 66.38
35.69 32.24 31.75 35.86 32.83 29.96 28.91 27.13 28.28 25.33 21.65 15.96 15.54 22.72 31.95 32.79 35.59 35.91 36.50 39.66 41.30 42.39 42.10 42.10 44.00 46.65 47.46 47.81 48.56 48.92 49.01 50.79 52.53 55.29 53.84 58.32 59.12 60.47 60.91 61.92 63.12 64.33 64.95 66.31
37.08 32.40 28.26 31.04 36.04 37.07 32.72 29.85 29.01 19.84 19.18 27.40 25.01 25.16 36.65 37.10 35.16 37.09 37.80 40.27 42.56 43.72 42.67 42.59 44.09 46.02 47.68 50.97 51.81 50.04 49.23 50.58 53.28 57.74 53.37 57.12 59.12 60.73 61.81 62.95 64.03 64.90 65.38 66.49
37.25 29.99 25.25 26.23 29.04 31.59 30.10 32.70 30.95 28.84 26.60 25.76 23.43 25.39 37.03 37.32 37.35 39.33 38.03 40.27 41.94 43.04 42.81 43.41 45.68 47.86 49.23 50.00 52.15 52.28 52.69 54.73 56.71 60.61 54.96 56.58 59.93 61.63 62.24 63.20 64.43 65.32 65.71 66.56
40.45 31.49 29.45 23.39 25.70 27.34 27.28 31.42 32.82 31.21 28.01 26.33 27.71 29.41 34.68 36.56 36.74 37.47 39.37 40.65 41.23 42.00 45.36 46.92 47.32 46.91 48.26 49.48 50.49 53.23 54.40 55.11 56.30 61.72 58.90 58.58 60.51 62.18 63.17 64.14 64.87 65.54 66.20 66.40
35.67 29.86 31.16 31.38 33.21 33.46 32.20 32.24 32.93 30.82 31.64 28.33 30.49 30.83 34.70 37.29 37.56 38.42 40.05 40.34 41.01 41.66 42.66 46.01 45.89 47.09 48.56 48.79 50.04 51.76 55.31 56.14 57.19 63.14 61.42 61.95 63.33 63.95 64.46 65.03 65.58 66.07 66.60 66.70
32.83 27.17 29.66 29.33 33.21 33.23 30.89 32.63 32.84 32.97 33.17 32.97 33.08 32.09 39.50 39.92 39.65 38.87 39.09 40.23 40.54 41.53 43.10 44.50 45.47 46.55 47.87 48.96 49.73 50.78 52.19 56.46 57.19 63.46 63.39 64.98 65.07 65.34 65.45 65.56 65.51 65.74 66.06 65.80
32.35 28.74 28.24 25.23 30.73 30.80 26.92 31.20 32.49 33.32 35.64 34.37 30.11 35.26 37.52 37.17 39.00 39.51 39.91 40.74 40.62 41.60 43.67 43.59 44.91 45.86 46.64 48.94 50.13 49.39 51.04 56.46 57.86 62.74 64.36 64.72 64.76 64.96 64.34 65.00 65.18 65.01 64.37 64.52
28.88 28.93 30.14 25.94 28.31 21.44 30.08 37.75 37.34 35.06 36.37 36.88 36.60 37.03 38.24 38.58 40.34 41.92 43.06 41.28 41.39 42.41 42.70 43.42 45.22 45.64 46.59 48.42 49.31 50.90 52.36 57.03 57.74 63.22 63.66 64.43 64.78 64.47 64.35 64.55 63.97 62.77 62.87 62.10
33.59 31.79 29.55 27.05 24.07 26.70 31.47 34.44 33.31 31.65 32.77 38.98 37.19 37.76 39.21 41.53 40.81 40.00 42.66 42.93 41.80 42.35 43.09 44.22 46.14 45.55 46.62 48.12 49.71 51.40 55.04 57.89 57.04 61.63 63.87 63.91 64.23 63.70 63.10 62.23 61.45 61.21 60.33 59.31
36.49 35.61 31.81 28.80 18.96 13.43 28.97 37.16 40.05 37.62 29.76 38.95 39.60 39.30 39.96 39.94 33.60 35.74 40.52 42.04 42.68 43.24 43.37 44.07 45.11 46.12 47.16 48.41 50.01 51.78 55.55 56.58 56.98 60.97 63.65 63.46 62.97 62.56 61.95 61.27 60.64 60.26 59.60 57.95
30.84 32.13 28.51 28.76 26.31 26.38 34.71 38.93 39.84 27.29 28.60 39.14 40.78 40.82 38.85 35.38 36.80 39.13 41.07 41.85 42.88 42.89 43.46 44.67 44.93 46.38 47.87 49.70 50.77 51.46 55.73 55.81 58.45 63.81 62.89 62.41 62.15 61.63 61.72 60.69 59.74 58.62 57.77 57.43
23.96 26.73 25.79 28.78 26.21 21.52 38.77 37.85 32.29 35.64 41.67 41.63 41.32 39.34 36.53 37.23 38.92 39.94 41.93 42.32 43.19 43.13 44.11 45.27 45.74 47.08 49.33 51.36 52.88 52.00 55.17 58.43 59.16 63.04 62.43 61.27 61.10 61.51 61.20 59.91 59.25 58.36 57.45 56.09
24.35 28.64 24.34 26.42 24.99 32.72 37.63 38.04 41.02 43.59 41.97 39.95 39.26 37.84 38.50 39.53 39.65 40.74 41.43 42.73 43.26 44.56 45.13 46.56 47.12 48.40 51.08 53.31 53.98 56.31 56.12 59.01 60.21 61.90 60.80 60.89 61.00 61.02 60.55 59.08 58.11 57.05 57.37 56.55
32.76 34.36 31.00 32.12 32.80 35.60 38.75 40.92 42.63 42.73 40.60 39.45 38.78 40.20 40.64 40.08 41.53 41.40 42.06 42.85 43.60 44.85 45.58 47.34 48.27 48.90 50.45 54.77 57.01 57.57 58.33 59.58 60.89 60.54 60.41 60.41 59.82 59.91 59.96 59.62 58.81 57.60 56.87 56.15
34.56 35.08 31.88 32.11 35.43 38.95 40.18 41.91 42.76 40.58 39.35 39.57 41.71 41.32 41.45 41.35 41.17 41.72 42.08 43.11 44.65 46.05 46.76 47.79 48.34 49.40 51.18 54.72 57.19 58.20 59.00 61.08 59.88 60.04 59.83 59.32 59.64 59.39 55.43 52.48 56.49 58.44 57.91 56.59
36.72 34.77 33.95 32.54 38.03 38.70 39.76 41.91 41.79 38.38 38.41 40.08 40.79 41.03 41.31 42.10 41.48 42.75 43.10 44.61 45.51 46.55 48.21 49.06 50.06 51.43 52.71 55.78 58.02 59.87 59.76 60.80 60.14 58.84 58.68 58.45 57.60 56.54 55.45 54.93 52.68 41.45 43.64 44.20
MSLP
1010.14 1010.63 1011.18 1011.07 1011.18 1011.29 1011.45 1011.56 1011.30 1010.73 1010.31 1010.13 1009.64 1008.90 1008.58 1007.91 1007.41 1006.90 1006.60 1006.35 1005.85 1005.80 1005.50 1005.34 1005.18 1004.46 1004.00 1003.51 1002.97 1002.65 1003.15 1003.39 1003.81 1003.80 1004.35 1004.73 1004.95 1005.23 1005.19 1005.50 1005.39 1005.99 1006.15 1006.22
1010.73 1010.74 1010.54 1010.48 1010.61 1010.94 1011.25 1011.41 1011.51 1011.31 1010.99 1011.12 1010.39 1008.97 1008.18 1007.79 1007.11 1006.73 1006.49 1006.32 1005.92 1005.81 1005.65 1005.51 1005.14 1005.03 1004.69 1004.34 1003.77 1003.12 1002.91 1002.80 1003.14 1003.34 1003.09 1003.24 1003.90 1004.15 1004.31 1004.60 1005.00 1005.37 1005.53 1005.84
1010.64 1010.36 1010.15 1010.24 1010.48 1010.83 1011.16 1011.49 1011.68 1011.85 1011.57 1011.31 1010.86 1009.37 1008.58 1007.82 1007.15 1007.02 1006.82 1006.38 1006.13 1006.04 1005.87 1005.88 1005.62 1005.04 1004.79 1004.91 1004.42 1003.51 1003.20 1002.64 1002.59 1002.62 1002.88 1003.12 1003.31 1003.48 1003.98 1004.32 1004.19 1004.22 1004.43 1004.98
1010.28 1009.96 1010.02 1010.19 1010.37 1010.70 1011.16 1011.40 1011.88 1012.28 1012.67 1012.93 1012.02 1010.77 1009.22 1008.46 1007.94 1007.40 1007.16 1006.96 1006.42 1006.24 1005.82 1005.52 1005.58 1005.46 1004.85 1004.61 1004.45 1003.80 1003.31 1002.50 1002.29 1002.05 1002.29 1002.33 1002.24 1002.28 1002.13 1002.64 1002.77 1002.99 1003.62 1004.06
1010.04 1009.86 1009.83 1009.94 1010.13 1010.51 1011.11 1011.53 1012.24 1012.75 1013.30 1013.65 1013.10 1012.72 1009.52 1008.38 1007.89 1007.47 1007.21 1006.89 1006.50 1006.16 1005.90 1005.61 1005.37 1005.15 1004.78 1004.36 1003.96 1003.48 1003.13 1002.29 1001.98 1001.54 1001.50 1001.59 1001.46 1001.27 1001.24 1001.51 1002.11 1002.40 1002.88 1003.44
1009.94 1009.70 1009.60 1009.58 1010.11 1010.68 1011.42 1012.14 1013.03 1013.72 1014.26 1014.40 1013.45 1012.90 1010.56 1009.20 1008.02 1007.52 1007.05 1006.53 1006.38 1006.18 1005.90 1005.62 1005.17 1004.78 1004.48 1003.84 1003.48 1002.94 1002.48 1001.95 1001.54 1001.10 1000.79 1000.57 1000.63 1000.54 1001.14 1001.16 1001.46 1001.81 1002.67 1002.99
1010.03 1009.92 1009.72 1009.66 1010.34 1011.17 1011.97 1013.30 1014.57 1015.07 1015.26 1014.89 1013.72 1012.79 1009.61 1008.45 1007.78 1007.38 1007.17 1006.55 1005.95 1005.93 1006.03 1005.80 1005.31 1004.68 1004.09 1003.66 1003.05 1002.52 1002.03 1001.34 1000.73 1000.57 1000.01 999.74 999.74 999.86 1000.22 1000.07 1000.61 1001.11 1001.78 1002.15
1010.52 1010.48 1009.95 1009.93 1010.40 1011.40 1012.50 1013.79 1015.40 1015.95 1016.12 1015.43 1014.24 1012.19 1008.86 1007.57 1007.14 1006.67 1006.66 1006.33 1006.05 1005.80 1005.61 1005.65 1005.16 1004.70 1003.89 1003.21 1002.81 1002.26 1001.76 1000.94 1000.17 999.75 999.23 998.98 999.09 999.29 999.42 999.62 1000.01 1000.16 1000.74 1000.77
1010.85 1010.74 1010.21 1010.11 1010.44 1011.29 1012.84 1014.03 1014.78 1015.89 1016.36 1016.03 1013.98 1011.20 1008.32 1007.16 1007.02 1006.74 1006.51 1006.61 1006.64 1006.00 1005.47 1005.03 1004.41 1004.05 1003.43 1002.80 1002.24 1001.89 1001.37 1000.33 999.72 999.11 998.72 998.32 998.44 998.66 998.51 998.69 999.13 999.56 1000.07 1000.51
1011.30 1011.48 1010.86 1010.68 1010.92 1011.50 1012.27 1013.40 1015.15 1016.57 1016.99 1016.10 1013.36 1011.26 1009.11 1007.73 1007.15 1006.92 1007.09 1006.95 1006.27 1005.78 1005.36 1004.66 1004.12 1003.63 1002.87 1002.37 1001.80 1001.11 1000.67 999.75 998.83 998.27 997.85 997.51 997.27 997.63 997.91 998.25 998.74 999.09 999.69 1000.09
1011.68 1012.20 1012.02 1011.73 1011.50 1011.81 1012.86 1013.67 1014.98 1016.02 1016.37 1015.93 1014.00 1009.96 1007.89 1007.59 1007.18 1007.10 1007.02 1006.86 1006.38 1005.54 1005.09 1004.53 1003.79 1003.39 1002.85 1001.87 1001.20 1000.26 999.68 999.00 998.16 997.37 996.89 996.64 996.55 996.82 997.21 997.70 998.12 998.48 999.12 999.81
1012.13 1012.57 1012.77 1012.07 1011.53 1011.95 1012.43 1013.36 1014.49 1015.48 1015.72 1015.29 1014.22 1008.91 1007.46 1007.05 1006.95 1007.19 1006.61 1006.59 1006.23 1005.64 1004.88 1004.17 1003.53 1003.12 1002.46 1001.50 1000.58 999.87 999.01 998.26 997.39 996.46 996.11 995.96 996.08 996.47 996.89 997.33 997.58 998.18 998.73 999.52
1012.38 1012.98 1013.20 1012.49 1012.42 1012.33 1012.54 1013.20 1013.75 1014.24 1014.47 1013.73 1013.02 1008.45 1006.73 1006.53 1006.82 1006.75 1006.72 1006.52 1006.24 1005.59 1004.62 1003.80 1003.21 1002.75 1001.97 1001.17 1000.52 999.63 998.67 997.75 996.74 995.73 995.22 995.20 995.34 995.78 996.19 996.57 997.26 997.82 998.48 999.20
1012.54 1012.86 1013.23 1013.02 1012.36 1012.44 1012.68 1012.70 1013.01 1013.35 1013.13 1011.53 1010.66 1007.75 1007.29 1007.06 1006.77 1006.59 1006.47 1006.36 1006.08 1005.37 1004.41 1003.68 1003.16 1002.37 1001.70 1000.58 1000.42 999.69 998.54 997.65 996.29 994.77 994.24 994.42 994.59 994.81 995.25 996.00 996.65 997.27 998.04 998.79
1012.52 1012.79 1013.04 1012.62 1012.34 1012.29 1012.17 1011.86 1011.63 1011.85 1011.03 1010.85 1008.40 1008.36 1006.41 1006.64 1006.57 1006.40 1006.33 1006.02 1005.58 1004.86 1004.13 1003.40 1002.93 1002.30 1001.41 999.99 999.85 999.32 998.32 997.25 996.00 994.08 993.73 993.80 993.88 994.28 994.90 995.78 996.46 997.27 997.87 998.47
1013.01 1013.05 1013.06 1012.73 1012.33 1011.84 1011.12 1010.31 1010.03 1009.72 1009.38 1008.96 1008.03 1006.92 1005.81 1005.66 1006.08 1006.18 1005.99 1005.57 1004.73 1003.97 1003.52 1003.02 1002.53 1001.84 1001.00 999.85 999.83 999.09 998.10 997.03 996.03 994.05 993.49 993.63 993.46 994.05 994.70 995.75 996.51 997.23 997.78 998.52
1013.32 1013.50 1013.65 1012.47 1011.90 1011.43 1010.11 1008.16 1008.04 1007.71 1007.23 1007.16 1006.86 1005.56 1005.60 1005.69 1005.76 1005.63 1005.27 1004.78 1004.15 1003.74 1003.13 1002.52 1002.10 1001.57 1000.68 1000.00 999.40 998.74 997.97 996.66 995.41 993.75 993.12 993.28 993.15 993.74 994.79 995.71 996.40 997.09 997.89 998.75
1013.01 1013.57 1013.57 1012.57 1011.96 1010.66 1007.82 1007.14 1006.90 1006.85 1006.45 1006.26 1005.87 1005.61 1005.58 1005.52 1005.27 1004.96 1004.70 1004.18 1003.53 1003.07 1002.56 1001.97 1001.46 1000.74 1000.04 999.65 999.40 998.74 997.25 995.67 994.72 993.28 992.84 992.90 993.18 993.72 994.83 995.69 996.45 997.33 997.95 998.89
1012.37 1013.06 1012.94 1012.32 1011.67 1009.67 1007.82 1007.17 1007.21 1007.15 1006.23 1005.74 1005.75 1005.88 1005.72 1005.18 1004.70 1004.02 1003.74 1003.14 1002.80 1002.34 1001.68 1001.18 1000.49 1000.09 999.60 998.83 998.00 997.60 996.31 995.01 993.86 992.95 992.58 992.84 993.08 993.79 994.70 995.76 996.67 997.29 998.12 999.34
1011.66 1012.61 1012.85 1012.08 1011.71 1010.10 1008.01 1007.44 1007.23 1007.39 1006.84 1006.21 1006.32 1006.35 1006.30 1005.61 1004.40 1002.82 1003.21 1002.80 1002.00 1001.43 1000.97 1000.29 999.65 998.87 998.22 997.34 997.28 996.71 995.32 994.34 993.21 992.59 992.17 992.59 993.05 993.73 994.73 995.72 996.78 997.57 998.60 999.82
1012.50 1012.60 1012.32 1011.94 1011.37 1009.44 1007.65 1007.55 1007.46 1007.64 1007.39 1006.75 1006.47 1006.07 1006.02 1005.71 1005.01 1002.96 1002.69 1001.65 1001.21 1000.22 999.73 999.36 998.71 997.95 997.10 996.42 996.10 995.43 994.34 993.40 992.70 991.75 992.21 992.72 993.37 994.03 994.45 995.92 996.89 997.93 999.32 1000.32
1012.36 1012.27 1011.95 1011.55 1010.79 1009.29 1007.69 1007.94 1007.77 1006.89 1006.27 1006.06 1005.96 1005.86 1005.31 1004.70 1003.70 1002.87 1001.67 1000.89 1000.07 999.27 998.73 998.17 997.59 996.87 996.13 995.31 994.76 994.04 993.34 992.85 992.41 991.55 991.97 992.91 993.92 994.12 995.21 995.84 997.67 998.85 999.84 1000.69
1011.99 1011.65 1011.70 1011.34 1009.43 1008.03 1007.59 1007.41 1006.84 1006.54 1006.05 1005.92 1005.47 1005.14 1004.83 1003.56 1002.58 1001.79 1000.76 999.90 998.96 998.05 997.31 996.82 996.48 995.54 994.64 993.88 993.46 992.73 992.45 992.47 992.14 991.57 992.22 993.03 993.84 994.74 995.83 996.67 998.07 999.29 1000.03 1001.05
1011.37 1010.97 1010.95 1010.55 1008.37 1007.53 1007.07 1006.62 1006.27 1005.80 1005.58 1005.33 1004.99 1004.32 1003.80 1002.62 1001.66 1000.80 999.98 998.92 997.95 997.10 996.40 995.87 995.30 994.39 993.52 992.65 992.33 991.57 991.80 992.00 992.02 992.32 993.14 993.17 994.15 995.50 996.59 997.47 998.48 999.57 1000.53 1001.36
1011.14 1010.69 1009.92 1009.20 1007.88 1007.28 1006.50 1006.20 1005.77 1005.41 1005.14 1004.50 1003.85 1003.60 1002.88 1002.06 1000.94 1000.12 999.16 998.04 997.09 996.16 995.19 994.79 994.08 993.28 992.41 992.06 991.51 991.36 991.57 991.55 991.84 991.60 993.02 994.08 995.05 995.97 997.46 998.69 999.71 1000.11 1000.61 1000.82
1010.32 1009.96 1009.51 1008.36 1007.70 1007.33 1006.21 1005.62 1005.01 1004.89 1004.40 1003.84 1002.98 1002.23 1002.02 1001.35 1000.25 999.46 998.34 997.31 996.37 995.28 994.12 993.38 992.73 991.96 990.82 990.78 990.47 990.46 991.38 991.29 991.43 992.24 993.67 994.51 995.52 996.73 997.74 998.77 1000.09 1000.81 1001.08 1001.34
Wind_Speed
4 5 3 7 7 2 1 3 3 4 3 7 8 10 8 8 6 8 6 7 8 3 4 5 7 9 10 10 10 9 5 7 2 3 6 3 10 9 7 8 10 11 10 10
6 1 5 3 4 4 4 2 3 4 5 2 10 19 14 9 7 6 6 8 8 5 3 5 8 5 6 9 11 10 8 7 6 5 6 6 6 6 7 7 8 10 11 11
5 5 1 1 2 3 2 3 2 5 4 5 6 6 2 4 4 4 7 7 7 7 8 4 5 7 6 5 9 9 10 9 7 9 3 2 2 3 3 4 6 11 12 9
4 3 3 2 3 5 3 5 3 2 4 3 4 9 2 1 5 3 8 9 9 8 7 6 5 6 9 7 7 9 10 9 10 8 8 13 13 12 12 11 7 8 10 10
5 4 3 1 3 4 4 2 1 1 2 1 5 1 9 5 3 4 9 8 8 9 8 9 8 7 11 9 8 8 9 9 12 9 11 11 13 12 9 4 6 6 7 8
7 2 4 6 3 2 2 3 5 4 2 2 5 3 5 3 4 8 7 9 7 8 9 9 9 8 9 8 7 7 8 9 10 8 10 14 15 13 6 5 6 5 4 6
2 1 3 2 4 3 6 6 5 6 4 5 2 5 9 8 10 10 9 11 10 6 7 8 11 13 14 13 11 8 7 12 8 9 11 11 16 16 14 13 9 7 5 4
5 3 4 2 4 5 3 7 6 5 4 5 3 9 9 6 9 8 8 9 10 12 8 7 10 11 14 15 12 10 10 10 10 8 12 12 15 11 10 10 8 7 7 6
4 4 2 1 3 7 2 3 3 2 3 3 6 9 12 13 9 8 11 6 10 13 12 10 11 8 12 14 13 11 12 13 11 11 10 11 12 13 11 10 8 6 5 5
2 2 2 3 3 0 5 6 3 3 2 5 5 8 12 11 15 6 7 9 15 13 10 12 9 10 13 13 13 11 11 14 14 10 11 11 12 12 11 8 9 8 7 8
3 3 3 1 5 7 1 2 4 3 5 5 4 9 7 6 8 5 7 12 16 17 13 9 9 11 12 12 14 12 13 13 13 10 10 10 9 9 8 9 7 8 7 10
4 4 4 8 3 3 5 7 6 5 5 4 3 17 3 13 5 6 8 10 13 13 12 10 8 9 8 16 17 15 14 13 13 11 8 11 8 9 10 9 9 9 10 10
4 1 1 5 1 4 3 4 5 3 2 11 7 14 2 6 9 11 10 8 9 12 12 9 7 7 9 13 17 17 15 15 15 11 8 8 11 11 12 11 10 11 11 10
2 6 6 7 5 4 3 7 6 6 6 9 14 28 20 16 15 10 8 6 9 10 8 7 9 11 11 10 14 18 19 15 17 9 7 10 12 13 12 11 11 11 12 12
7 8 7 8 9 7 11 17 18 15 19 14 20 19 24 16 13 8 6 8 12 14 14 6 9 13 14 11 15 17 18 16 16 9 7 10 9 9 10 11 13 12 12 11
1 2 4 4 9 12 18 20 19 20 20 19 22 24 18 8 5 6 8 11 16 15 14 10 14 16 18 12 15 17 20 17 15 10 6 10 12 12 12 12 13 13 11 11
3 3 2 5 1 6 10 16 12 7 7 8 8 14 2 7 6 7 11 15 16 15 11 13 15 15 17 13 17 18 20 18 14 10 9 10 13 12 13 12 12 12 13 12
6 5 3 5 2 6 6 4 5 7 7 8 11 11 4 5 9 11 12 15 17 11 13 17 16 16 17 15 16 17 19 16 11 8 9 10 13 13 12 12 11 11 12 12
10 5 3 3 4 8 7 2 1 4 7 5 9 6 7 11 15 17 12 11 10 12 17 18 16 17 17 17 14 15 17 12 8 8 9 11 13 13 13 13 12 12 12 10
5 7 3 1 1 6 5 3 5 4 9 4 5 10 18 12 16 16 10 19 20 20 18 18 18 18 16 18 14 15 14 11 9 10 11 11 12 15 15 14 13 10 11 11
3 3 8 6 5 9 4 5 2 1 3 9 15 17 12 17 17 25 22 20 19 20 19 16 17 16 18 17 14 14 12 11 9 9 10 11 12 14 16 14 12 13 12 12
3 3 3 3 4 8 2 1 4 5 16 19 9 19 16 18 22 20 21 22 21 20 18 17 15 16 15 15 13 14 12 8 7 10 14 13 13 12 11 18 13 13 12 13
3 5 4 8 8 5 4 8 7 13 12 13 20 13 15 21 21 21 20 20 20 20 18 15 14 16 15 15 12 12 7 8 8 10 13 14 13 12 12 15 14 11 11 10
4 3 4 2 7 8 7 7 12 7 11 14 14 17 16 22 18 20 20 18 17 18 17 15 15 16 16 14 10 10 8 8 7 13 11 13 14 13 12 10 10 10 9 9
7 3 4 8 13 11 13 10 13 7 11 16 17 17 19 17 19 19 18 19 17 17 17 14 14 15 17 14 7 6 7 9 7 13 14 13 12 13 11 8 6 8 6 10
2 3 3 5 14 15 15 14 9 7 19 19 22 17 17 16 18 19 17 16 16 17 17 15 14 15 17 14 10 8 9 10 9 10 11 10 11 11 9 10 9 19 11 13
Wind_Direction
10 73 210 249 208 174 109 185 230 285 347 9 290 287 283 270 270 282 282 296 299 264 264 290 284 303 313 325 323 296 194 226 171 162 174 192 214 224 213 212 205 205 198 182
22 211 212 267 164 181 180 174 231 288 286 298 277 293 285 216 231 216 262 283 280 279 285 314 313 309 316 302 310 309 284 258 196 214 213 189 198 215 229 222 211 196 190 190
162 240 5 95 108 131 155 160 222 235 311 290 313 280 89 279 254 302 285 266 283 286 303 293 301 305 302 282 292 297 286 281 238 216 171 87 94 126 151 204 205 203 188 191
218 260 155 133 201 140 195 202 214 259 34 290 39 285 260 124 267 277 304 297 285 297 307 296 302 288 296 287 259 274 283 277 272 232 216 213 221 224 228 232 199 178 182 198
259 181 226 1 212 175 202 159 333 293 238 103 280 293 276 309 330 329 310 275 276 285 283 298 301 291 292 288 284 273 272 272 264 249 217 223 228 234 235 167 184 180 184 191
248 244 181 201 115 100 77 40 34 51 76 25 259 181 248 240 226 315 306 306 268 285 304 308 298 301 288 287 281 274 280 268 259 250 232 225 229 224 203 190 193 182 174 188
261 213 303 134 107 48 72 51 340 347 5 233 284 292 242 248 278 267 254 284 298 293 289 293 304 310 310 302 293 289 275 286 274 240 241 226 230 228 221 215 209 163 166 197
172 306 166 180 145 187 188 151 157 242 228 244 2 251 253 221 236 266 240 265 296 297 287 278 281 285 296 301 296 287 282 277 283 256 241 232 229 228 218 215 202 190 193 176
154 271 308 184 175 136 170 174 193 146 7 35 229 291 294 281 284 271 269 309 292 285 296 296 300 286 288 295 287 283 281 279 267 263 242 225 218 216 207 203 190 183 158 146
177 305 276 313 79 296 156 162 86 19 254 259 258 254 239 303 293 299 309 297 307 302 288 296 309 304 308 296 285 283 272 275 277 266 246 225 208 206 205 169 183 175 156 149
161 181 267 280 197 198 166 169 74 129 152 197 300 263 219 238 258 290 304 312 313 307 297 286 295 302 298 298 290 286 289 281 275 263 247 229 212 196 173 180 174 170 149 166
190 161 223 234 270 225 169 192 154 135 246 216 214 261 343 278 303 312 311 316 319 315 286 282 287 295 313 334 318 308 292 286 275 263 234 214 196 177 177 181 176 164 172 169
182 239 284 315 17 355 162 181 184 183 127 229 245 267 278 340 316 312 315 308 309 318 308 306 310 310 322 333 327 315 303 295 287 258 223 198 189 178 182 176 172 166 162 164
193 188 205 222 232 157 281 257 220 213 242 270 233 276 278 288 289 296 297 299 299 297 295 299 308 315 318 330 322 308 302 302 291 257 206 201 189 185 176 166 158 158 160 159
179 224 206 236 249 269 258 261 259 243 249 245 276 273 281 289 287 277 276 290 298 305 309 298 311 306 302 323 314 310 296 306 298 272 206 207 171 143 137 147 154 156 157 158
36 268 169 255 235 241 257 259 253 253 252 256 261 268 274 268 265 261 279 304 307 306 297 312 311 309 305 320 297 300 303 300 295 277 198 191 158 148 146 155 159 158 143 141
178 141 30 267 228 295 271 252 239 218 217 204 235 255 280 273 271 294 307 302 301 299 284 307 303 300 293 292 291 295 293 290 287 271 181 169 149 144 152 156 152 147 141 140
180 149 190 267 35 242 235 237 231 226 248 247 273 280 286 275 274 284 289 283 281 278 291 304 292 292 288 283 276 282 280 286 282 260 187 169 160 146 143 142 140 135 131 131
207 168 236 251 217 296 276 38 200 186 278 258 285 324 291 292 298 281 275 264 254 284 294 289 284 281 279 277 282 281 276 281 285 273 186 174 161 143 143 140 140 125 117 115
160 179 212 358 272 248 244 140 110 99 276 62 21 323 306 312 297 297 305 303 292 286 281 281 284 286 283 277 274 270 270 271 277 264 184 162 154 146 140 134 131 117 116 118
131 195 222 242 255 280 259 156 141 352 314 321 299 292 305 290 279 302 300 291 284 281 284 285 281 274 275 277 270 270 267 266 286 217 163 148 143 146 130 125 120 115 115 112
195 199 219 237 237 269 146 47 222 262 312 295 310 300 290 290 296 291 293 294 292 291 289 283 281 279 277 269 266 266 253 254 299 164 137 129 140 127 129 119 121 120 119 113
288 190 212 183 229 240 223 235 270 306 285 305 299 285 284 295 292 292 292 293 293 289 286 285 283 284 283 276 259 267 225 183 242 122 134 130 124 119 124 120 120 117 114 123
281 187 237 328 266 252 280 283 290 262 292 304 276 277 299 293 298 299 294 293 292 289 288 284 281 279 281 282 266 222 180 177 145 126 131 126 122 121 118 118 122 120 125 128
256 278 243 258 276 292 267 275 288 292 294 304 287 299 295 300 293 292 293 292 291 289 288 283 277 275 274 276 224 169 181 134 144 135 140 125 122 115 102 76 108 136 116 144
206 253 247 272 303 289 287 299 285 284 311 313 302 303 304 294 293 295 291 292 290 288 284 277 273 267 270 265 237 188 164 117 111 125 126 124 122 124 122 117 88 44 70 98